CW9648 Weather Reports


Display with metric or nautical units.
time (UTC)temp
F
wind
direction
speed
MPH
gust
MPH
rain 1hr
in
rain 24hr
in
rain mn
in
humidity
%
barometer
mb
20260508205003 73 358 1.0 2.0 0.00 0.41 0.41 88 1012.0
20260508204503 73 2 1.0 4.0 0.00 0.41 0.41 88 1012.0
20260508204003 73 5 1.0 4.0 0.00 0.41 0.41 88 1012.0
20260508203503 73 258 1.0 6.0 0.00 0.41 0.41 88 1012.1
20260508203003 73 311 2.0 6.0 0.00 0.41 0.41 90 1012.1
20260508202503 73 1 1.0 4.0 0.00 0.41 0.41 90 1012.1
20260508202003 72 2 1.0 4.0 0.00 0.41 0.41 91 1012.1
20260508201503 72 360 2.0 4.0 0.00 0.41 0.41 91 1012.3
20260508201003 71 121 2.0 3.0 0.00 0.41 0.41 92 1012.2
20260508200503 71 142 2.0 5.0 0.00 0.41 0.41 92 1012.3
20260508200003 70 134 2.0 5.0 0.00 0.41 0.41 93 1012.3
20260508195503 70 83 2.0 5.0 0.00 0.41 0.41 93 1012.2
20260508195003 70 93 1.0 5.0 0.00 0.41 0.41 93 1012.2
20260508194503 69 135 1.0 3.0 0.00 0.41 0.41 93 1012.3
20260508194024 69 109 1.0 3.0 0.00 0.41 0.41 93 1012.3
20260508193503 69 60 1.0 3.0 0.00 0.41 0.41 93 1012.2
20260508193003 68 27 1.0 3.0 0.00 0.41 0.41 93 1012.3
20260508192503 68 45 1.0 3.0 0.00 0.41 0.41 93 1012.3
20260508192003 68 65 1.0 2.0 0.00 0.41 0.41 93 1012.3
20260508191503 68 79 0.0 2.0 0.00 0.41 0.41 93 1012.3
20260508191003 68 116 1.0 3.0 0.00 0.41 0.41 93 1012.6
20260508190503 68 90 1.0 3.0 0.00 0.41 0.41 93 1012.4
20260508190003 67 71 1.0 3.0 0.00 0.41 0.41 93 1012.5
20260508185503 68 57 1.0 4.0 0.00 0.41 0.41 92 1012.5
20260508185003 67 10 2.0 4.0 0.00 0.41 0.41 92 1012.7
20260508184504 67 8 2.0 4.0 0.00 0.41 0.41 92 1012.8
20260508184024 67 44 1.0 3.0 0.00 0.41 0.41 92 1013.0
20260508183503 67 40 1.0 3.0 0.00 0.41 0.41 92 1013.0
20260508183003 66 58 1.0 3.0 0.00 0.41 0.41 92 1013.1
20260508182503 66 113 1.0 2.0 0.00 0.41 0.41 92 1013.3
20260508182003 66 98 1.0 3.0 0.00 0.41 0.41 92 1013.5
20260508181524 66 122 1.0 3.0 0.00 0.41 0.41 92 1013.6
20260508181003 66 146 1.0 4.0 0.00 0.41 0.41 92 1013.7
20260508180503 66 129 1.0 4.0 0.00 0.41 0.41 92 1013.8
20260508180003 66 111 1.0 3.0 0.03 0.41 0.41 92 1013.8
20260508175503 66 77 1.0 3.0 0.04 0.41 0.41 91 1013.7
20260508175003 66 76 1.0 2.0 0.04 0.41 0.41 91 1013.9
20260508174524 66 105 1.0 3.0 0.04 0.41 0.41 91 1013.8
20260508174003 66 70 1.0 3.0 0.05 0.41 0.41 91 1013.9
20260508173503 65 23 2.0 5.0 0.06 0.41 0.41 91 1014.0
20260508173024 65 29 2.0 5.0 0.06 0.41 0.41 91 1014.1
20260508172524 65 69 1.0 4.0 0.07 0.41 0.41 91 1013.9
20260508172003 65 65 1.0 4.0 0.18 0.41 0.41 91 1014.0
20260508171503 64 23 1.0 4.0 0.18 0.41 0.41 91 1014.2
20260508171003 64 16 1.0 4.0 0.19 0.41 0.41 91 1014.3
20260508170524 64 36 1.0 4.0 0.20 0.41 0.41 91 1014.3
20260508170003 63 14 2.0 6.0 0.20 0.38 0.38 91 1014.4
20260508165503 63 353 2.0 6.0 0.20 0.37 0.37 92 1014.3
20260508165003 63 352 2.0 5.0 0.21 0.37 0.37 91 1014.7
20260508164524 63 360 2.0 8.0 0.21 0.37 0.37 91 1014.5
20260508164003 63 347 3.0 9.0 0.21 0.36 0.36 92 1014.5
20260508163503 63 333 3.0 9.0 0.21 0.35 0.35 92 1014.7
20260508163003 63 342 2.0 6.0 0.22 0.35 0.35 92 1014.7
20260508162524 63 357 2.0 5.0 0.21 0.34 0.34 92 1014.5
20260508162003 63 338 2.0 3.0 0.10 0.23 0.23 92 1014.7
20260508161503 63 5 1.0 4.0 0.10 0.23 0.23 92 1014.9
20260508161003 63 114 1.0 4.0 0.09 0.22 0.22 92 1014.6
20260508160524 63 105 1.0 3.0 0.08 0.21 0.21 92 1014.5
20260508160003 62 130 0.0 2.0 0.05 0.18 0.18 92 1015.1
20260508155003 62 77 1.0 3.0 0.05 0.16 0.16 92 1015.3
20260508154503 62 94 1.0 3.0 0.05 0.16 0.16 92 1015.3
20260508154003 62 94 1.0 2.0 0.05 0.15 0.15 92 1015.1
20260508153503 62 79 1.0 2.0 0.05 0.14 0.14 92 1015.0
20260508153003 62 143 1.0 4.0 0.05 0.13 0.13 92 1015.6
20260508152503 62 150 1.0 4.0 0.06 0.13 0.13 93 1015.6
20260508152003 62 141 1.0 3.0 0.06 0.13 0.13 92 1015.4
20260508151504 62 150 1.0 3.0 0.07 0.13 0.13 92 1015.8
20260508151004 62 165 1.0 3.0 0.07 0.13 0.13 93 1015.9
20260508150504 62 282 1.0 4.0 0.08 0.13 0.13 93 1015.9
20260508150005 62 314 2.0 5.0 0.09 0.13 0.13 93 1015.8
20260508145504 62 328 2.0 5.0 0.08 0.12 0.12 93 1015.4
20260508145005 62 351 1.0 4.0 0.09 0.11 0.11 93 1014.8
20260508144505 62 33 1.0 3.0 0.11 0.11 0.11 93 1014.9
20260508144025 62 355 2.0 4.0 0.10 0.10 0.10 93 1015.0
20260508143504 62 332 3.0 9.0 0.09 0.09 0.09 93 1015.4
20260508143025 62 335 4.0 10.0 0.08 0.08 0.08 93 1015.6
20260508142504 62 332 4.0 10.0 0.07 0.07 0.07 93 1015.6
20260508142005 62 327 3.0 9.0 0.07 0.07 0.07 93 1015.7
20260508141504 62 144 3.0 7.0 0.06 0.06 0.06 93 1015.1
20260508141005 62 131 3.0 7.0 0.06 0.06 0.06 93 1015.1
20260508140504 62 119 3.0 6.0 0.05 0.05 0.05 93 1014.8
20260508140004 62 127 2.0 4.0 0.04 0.04 0.04 93 1015.5
20260508135504 62 135 2.0 4.0 0.04 0.04 0.04 93 1016.4
20260508135004 62 174 2.0 6.0 0.02 0.02 0.02 93 1016.5
20260508134528 62 248 2.0 6.0 0.00 0.00 0.00 93 1017.7
20260508134004 62 291 1.0 4.0 0.00 0.00 0.00 93 1016.8
20260508133504 61 160 2.0 4.0 0.00 0.00 0.00 93 1016.1
20260508133004 61 156 2.0 4.0 0.00 0.00 0.00 93 1015.3
20260508132504 61 215 2.0 4.0 0.00 0.00 0.00 93 1015.9
20260508132004 61 292 2.0 7.0 0.00 0.00 0.00 93 1016.1
20260508131504 61 298 2.0 7.0 0.00 0.00 0.00 93 1015.5
20260508131004 61 323 1.0 3.0 0.00 0.00 0.00 93 1015.2
20260508130525 61 332 1.0 3.0 0.00 0.00 0.00 93 1014.2
20260508130004 61 325 1.0 3.0 0.00 0.00 0.00 93 1014.0
20260508125504 61 32 1.0 2.0 0.00 0.00 0.00 93 1014.4
20260508125004 61 62 1.0 2.0 0.00 0.00 0.00 93 1014.1
20260508124504 61 62 1.0 2.0 0.00 0.00 0.00 93 1014.2
20260508124004 61 96 1.0 2.0 0.00 0.00 0.00 93 1014.9
20260508123504 61 130 1.0 2.0 0.00 0.00 0.00 93 1014.7
20260508123004 61 141 1.0 2.0 0.00 0.00 0.00 93 1014.6
20260508122504 61 116 0.0 2.0 0.00 0.00 0.00 93 1014.7
20260508122025 61 110 0.0 2.0 0.00 0.00 0.00 93 1014.9
20260508121504 61 121 0.0 2.0 0.00 0.00 0.00 94 1014.9
20260508121004 60 289 0.0 1.0 0.00 0.00 0.00 93 1015.1
20260508120504 60 305 1.0 4.0 0.00 0.00 0.00 93 1015.1
20260508120025 60 330 1.0 4.0 0.00 0.00 0.00 93 1015.2
20260508115504 60 30 1.0 3.0 0.00 0.00 0.00 94 1015.1
20260508115004 60 355 1.0 2.0 0.00 0.00 0.00 94 1014.4
20260508114504 60 289 0.0 2.0 0.00 0.00 0.00 94 1014.6
20260508114004 60 254 0.0 1.0 0.00 0.00 0.00 94 1014.6
20260508113504 60 253 0.0 1.0 0.00 0.00 0.00 94 1014.7
20260508113005 60 243 0.0 1.0 0.00 0.00 0.00 94 1014.8
20260508112504 60 311 0.0 2.0 0.00 0.00 0.00 94 1015.0
20260508112004 60 324 1.0 3.0 0.00 0.00 0.00 94 1015.3
20260508111504 60 327 1.0 3.0 0.00 0.00 0.00 94 1015.4
20260508111004 60 345 1.0 3.0 0.00 0.00 0.00 94 1015.1
20260508110504 60 343 1.0 3.0 0.00 0.00 0.00 93 1015.2
20260508110004 60 339 1.0 3.0 0.00 0.00 0.00 93 1015.2
20260508105525 61 330 0.0 2.0 0.00 0.00 0.00 93 1015.0
20260508105004 61 330 1.0 2.0 0.00 0.00 0.00 93 1015.0
20260508104525 61 319 1.0 2.0 0.00 0.00 0.00 93 1015.2
20260508104004 61 280 1.0 2.0 0.00 0.00 0.00 93 1015.1
20260508103504 61 61 1.0 2.0 0.00 0.00 0.00 93 1014.9
20260508103004 61 44 1.0 2.0 0.00 0.00 0.00 93 1014.7
20260508102504 61 32 0.0 2.0 0.00 0.00 0.00 93 1015.0
20260508102004 61 345 1.0 2.0 0.00 0.00 0.00 93 1015.4
20260508101504 61 329 1.0 3.0 0.00 0.00 0.00 93 1015.6
20260508101004 61 315 0.0 3.0 0.00 0.00 0.00 93 1015.8
20260508100504 61 311 0.0 2.0 0.00 0.00 0.00 93 1015.4
20260508100004 61 311 1.0 2.0 0.00 0.00 0.00 93 1015.5
20260508095504 61 311 0.0 2.0 0.00 0.00 0.00 93 1015.4
20260508095004 61 318 0.0 2.0 0.00 0.00 0.00 93 1015.4
20260508094504 61 339 0.0 2.0 0.00 0.00 0.00 93 1015.2
20260508094004 61 359 1.0 3.0 0.00 0.00 0.00 93 1015.1
20260508093504 61 340 2.0 3.0 0.00 0.00 0.00 93 1014.8
20260508093004 61 321 1.0 3.0 0.00 0.00 0.00 93 1015.0
20260508092504 61 312 1.0 2.0 0.00 0.00 0.00 93 1014.8
20260508092025 61 312 0.0 2.0 0.00 0.00 0.00 93 1014.7
20260508091504 61 312 0.0 2.0 0.00 0.00 0.00 93 1014.7
20260508091004 61 326 0.0 2.0 0.00 0.00 0.00 93 1014.9
20260508090504 61 334 0.0 2.0 0.00 0.00 0.00 93 1014.9
20260508090004 61 0 0.0 0.0 0.00 0.00 0.00 93 1014.8
20260508085504 61 333 0.0 1.0 0.00 0.00 0.00 93 1014.7
20260508085004 61 333 0.0 1.0 0.00 0.00 0.00 93 1014.9
20260508084504 61 333 0.0 1.0 0.00 0.00 0.00 93 1014.9
20260508084025 61 323 0.0 2.0 0.00 0.00 0.00 93 1015.1
20260508083504 61 328 0.0 2.0 0.00 0.00 0.00 93 1015.2
20260508083004 61 22 0.0 1.0 0.00 0.00 0.00 93 1015.1
20260508082525 61 25 0.0 1.0 0.00 0.00 0.00 93 1015.0
20260508082004 60 24 0.0 2.0 0.00 0.00 0.00 93 1015.0
20260508081504 60 360 0.0 2.0 0.00 0.00 0.00 93 1015.3
20260508081004 60 355 1.0 3.0 0.00 0.00 0.00 93 1015.6
20260508080504 60 336 1.0 4.0 0.00 0.00 0.00 93 1015.5
20260508080004 60 326 1.0 4.0 0.00 0.00 0.00 93 1015.7
20260508075504 60 320 0.0 2.0 0.00 0.00 0.00 93 1015.5
20260508075004 60 320 1.0 1.0 0.00 0.00 0.00 93 1015.6
20260508074504 60 320 0.0 1.0 0.00 0.00 0.00 93 1015.6
20260508074004 60 320 0.0 1.0 0.00 0.00 0.00 93 1015.6
20260508073525 60 320 0.0 2.0 0.00 0.00 0.00 93 1015.6
20260508073004 60 320 0.0 2.0 0.00 0.00 0.00 93 1015.6
20260508072504 60 320 0.0 1.0 0.00 0.00 0.00 93 1015.5
20260508072004 60 320 0.0 1.0 0.00 0.00 0.00 93 1015.5
20260508071504 60 320 0.0 1.0 0.00 0.00 0.00 93 1015.6
20260508071004 60 320 0.0 1.0 0.00 0.00 0.00 93 1015.5
20260508070504 60 320 0.0 1.0 0.00 0.00 0.00 93 1015.6
20260508070004 60 320 0.0 2.0 0.00 0.00 0.00 93 1015.5
20260508065504 60 320 1.0 2.0 0.00 0.00 0.00 93 1015.5
20260508065004 60 320 1.0 2.0 0.00 0.00 0.00 93 1015.7
20260508064504 60 320 0.0 2.0 0.00 0.00 0.00 93 1015.7
20260508064004 60 324 1.0 2.0 0.00 0.00 0.00 93 1016.0
20260508063504 60 331 1.0 3.0 0.00 0.00 0.00 93 1015.9
20260508063004 61 324 1.0 4.0 0.00 0.00 0.00 93 1015.7
20260508062504 61 295 1.0 4.0 0.00 0.00 0.00 93 1015.7
20260508062004 61 101 1.0 3.0 0.00 0.00 0.00 93 1015.3
20260508061504 61 345 1.0 4.0 0.00 0.00 0.00 93 1015.3
20260508061025 61 335 1.0 4.0 0.00 0.00 0.00 93 1015.7
20260508060505 61 342 1.0 4.0 0.00 0.00 0.00 93 1015.6
20260508060004 61 352 1.0 4.0 0.00 0.00 0.00 92 1015.6
20260508055504 61 169 1.0 3.0 0.00 0.00 0.00 92 1015.5
20260508055004 61 287 1.0 2.0 0.00 0.00 0.00 92 1015.6
20260508054504 61 312 1.0 2.0 0.00 0.00 0.00 92 1016.3
20260508054004 61 355 0.0 2.0 0.00 0.00 0.00 92 1016.1
20260508053504 61 355 0.0 2.0 0.00 0.00 0.00 92 1015.7
20260508053004 61 0 0.0 0.0 0.00 0.00 0.00 92 1016.0
20260508052504 61 355 0.0 1.0 0.00 0.00 0.00 92 1016.1
20260508052004 61 355 0.0 1.0 0.00 0.00 0.00 92 1016.2
20260508051504 61 337 2.0 5.0 0.00 0.00 0.00 92 1016.1
20260508051004 61 339 2.0 5.0 0.00 0.00 0.00 92 1016.2
20260508050504 62 121 1.0 4.0 0.00 0.00 0.00 92 1016.2
20260508050004 62 73 1.0 2.0 0.00 0.00 0.00 92 1015.7
20260508045525 61 342 2.0 4.0 0.00 0.00 0.00 92 1015.9
20260508045004 61 335 2.0 4.0 0.00 0.00 0.00 92 1016.1
20260508044504 61 339 1.0 3.0 0.00 0.00 0.00 91 1016.1
20260508044004 62 348 0.0 2.0 0.00 0.00 0.00 92 1015.5
20260508043504 62 348 0.0 2.0 0.00 0.00 0.00 91 1015.5
20260508043004 62 348 0.0 2.0 0.00 0.00 0.00 91 1015.6
20260508042504 62 348 0.0 1.0 0.00 0.00 0.00 91 1015.7
20260508042004 62 348 0.0 1.0 0.00 0.00 0.00 91 1015.7
20260508041504 62 348 0.0 1.0 0.00 0.00 0.00 91 1015.7
20260508041004 62 348 0.0 1.0 0.00 0.00 0.00 91 1016.0
20260508040504 62 348 0.0 1.0 0.00 0.00 0.00 90 1016.0
20260508040004 62 348 0.0 1.0 0.00 0.00 0.00 91 1016.1
20260508035504 62 347 0.0 2.0 0.00 0.00 0.00 91 1016.0
20260508035024 62 347 0.0 2.0 0.00 0.00 0.00 90 1016.0
20260508034504 62 0 0.0 0.0 0.00 0.00 0.00 90 1016.0
20260508034004 62 322 0.0 2.0 0.00 0.00 0.00 90 1016.0
20260508033504 62 334 1.0 3.0 0.00 0.00 0.00 90 1016.2
20260508033004 62 344 1.0 3.0 0.00 0.00 0.00 90 1016.0
20260508032504 62 343 1.0 3.0 0.00 0.00 0.00 90 1016.0
20260508032004 62 330 0.0 2.0 0.00 0.00 0.00 90 1015.9
20260508031503 62 330 0.0 2.0 0.00 0.00 0.00 89 1016.1
20260508031004 62 330 0.0 2.0 0.00 0.00 0.00 89 1016.2
20260508030503 62 0 0.0 0.0 0.00 0.00 0.00 89 1016.3
20260508030024 62 0 0.0 0.0 0.00 0.00 0.00 88 1016.3
20260508025525 62 0 0.0 0.0 0.00 0.00 0.00 88 1016.4
20260508025025 62 330 0.0 1.0 0.00 0.00 0.00 87 1016.4
20260508024524 63 330 0.0 1.0 0.00 0.00 0.00 87 1016.3
20260508024003 63 0 0.0 0.0 0.00 0.00 0.00 87 1016.5
20260508023504 63 0 0.0 0.0 0.00 0.00 0.00 86 1016.4
20260508023003 63 330 0.0 2.0 0.00 0.00 0.00 86 1016.1
20260508022504 63 330 0.0 2.0 0.00 0.00 0.00 86 1016.1
20260508022003 63 330 0.0 2.0 0.00 0.00 0.00 86 1016.2
20260508021504 63 330 0.0 2.0 0.00 0.00 0.00 86 1016.0
20260508021004 63 330 0.0 2.0 0.00 0.00 0.00 86 1015.8
20260508020525 63 328 1.0 2.0 0.00 0.00 0.00 86 1015.8
20260508020004 64 314 1.0 2.0 0.00 0.00 0.00 86 1016.0
20260508015525 64 164 0.0 2.0 0.00 0.00 0.00 86 1016.0
20260508015004 64 300 0.0 3.0 0.00 0.00 0.00 85 1016.0
20260508014504 64 317 1.0 3.0 0.00 0.00 0.00 84 1016.1
20260508014025 64 337 1.0 5.0 0.00 0.00 0.00 83 1016.1
20260508013504 64 332 2.0 5.0 0.00 0.00 0.00 83 1016.0
20260508013004 64 317 3.0 5.0 0.00 0.00 0.00 84 1016.1
20260508012504 64 311 2.0 4.0 0.00 0.00 0.00 84 1016.0
20260508012004 64 318 1.0 4.0 0.00 0.00 0.00 84 1015.8
20260508011524 64 344 1.0 4.0 0.00 0.00 0.00 84 1015.5
20260508011003 65 337 1.0 4.0 0.00 0.00 0.00 84 1015.3
20260508010504 65 317 1.0 4.0 0.00 0.00 0.00 83 1015.1
20260508010004 65 167 1.0 5.0 0.00 0.00 0.00 83 1015.2
20260508005504 65 153 1.0 5.0 0.00 0.00 0.00 82 1015.0
20260508005003 65 124 1.0 2.0 0.00 0.00 0.00 81 1015.3
20260508004504 66 14 1.0 3.0 0.00 0.00 0.00 81 1015.5
20260508004004 66 345 1.0 3.0 0.00 0.00 0.00 81 1016.0
20260508003503 66 337 1.0 5.0 0.00 0.00 0.00 81 1015.9
20260508003004 66 333 2.0 5.0 0.00 0.00 0.00 81 1016.1
20260508002525 66 336 2.0 4.0 0.00 0.00 0.00 81 1015.9
20260508002004 66 338 1.0 3.0 0.00 0.00 0.00 82 1015.9
20260508001504 67 302 1.0 6.0 0.00 0.00 0.00 80 1015.6
20260508001003 67 302 3.0 6.0 0.00 0.00 0.00 79 1015.4
20260508000504 67 270 3.0 6.0 0.00 0.00 0.00 79 1015.2
20260508000004 67 145 2.0 5.0 0.00 0.00 0.00 80 1014.5
20260507235504 67 93 1.0 3.0 0.00 0.00 0.00 79 1014.4
20260507235004 67 334 1.0 2.0 0.00 0.00 0.00 79 1015.2
20260507234504 68 315 1.0 3.0 0.00 0.00 0.00 78 1015.5
20260507234004 68 330 1.0 3.0 0.00 0.00 0.00 78 1015.5
20260507233504 68 27 1.0 3.0 0.00 0.00 0.00 78 1015.5
20260507233024 68 26 1.0 3.0 0.00 0.00 0.00 78 1015.2
20260507232504 68 344 2.0 3.0 0.00 0.00 0.00 78 1015.8
20260507232004 69 343 1.0 3.0 0.00 0.00 0.00 78 1016.1
20260507231503 69 83 0.0 2.0 0.00 0.02 0.00 75 1015.6
20260507231003 70 76 0.0 2.0 0.00 0.02 0.00 74 1015.6
20260507230503 70 9 0.0 2.0 0.00 0.02 0.00 73 1015.7
20260507230004 70 355 0.0 2.0 0.00 0.02 0.00 73 1016.0
20260507225503 70 355 0.0 1.0 0.00 0.02 0.00 73 1015.9
20260507225003 70 351 0.0 2.0 0.00 0.02 0.00 72 1016.1
20260507224504 70 352 2.0 5.0 0.00 0.02 0.00 70 1016.1
20260507224003 70 340 3.0 6.0 0.00 0.02 0.00 70 1016.3
20260507223503 71 333 3.0 6.0 0.00 0.02 0.00 70 1016.4
20260507223003 71 336 2.0 5.0 0.00 0.02 0.00 70 1016.5
20260507222503 71 340 2.0 4.0 0.00 0.02 0.00 70 1016.4
20260507222024 71 334 2.0 4.0 0.00 0.02 0.00 69 1016.3
20260507221503 71 329 3.0 6.0 0.00 0.02 0.00 69 1016.2
20260507221003 72 325 2.0 6.0 0.00 0.02 0.00 68 1016.0
20260507220503 72 319 1.0 4.0 0.00 0.02 0.00 69 1015.8
20260507220004 72 22 1.0 3.0 0.00 0.02 0.00 71 1015.6
20260507215503 72 352 1.0 4.0 0.00 0.02 0.00 71 1015.5
20260507215025 72 347 2.0 6.0 0.00 0.02 0.00 70 1015.5
20260507214503 72 351 2.0 6.0 0.00 0.02 0.00 69 1015.6
20260507214024 72 347 2.0 4.0 0.00 0.02 0.00 70 1015.6
20260507213503 72 350 2.0 4.0 0.00 0.02 0.00 67 1015.2
20260507213003 72 354 2.0 4.0 0.00 0.02 0.00 69 1015.5
20260507212524 72 359 2.0 5.0 0.00 0.02 0.00 68 1015.5
20260507212003 72 352 2.0 5.0 0.00 0.02 0.00 66 1015.6
20260507211504 72 6 2.0 7.0 0.00 0.02 0.00 65 1015.6
20260507211004 73 5 3.0 8.0 0.00 0.02 0.00 66 1015.8
20260507210504 73 357 3.0 8.0 0.00 0.02 0.00 66 1016.0
20260507210004 73 4 2.0 8.0 0.00 0.02 0.00 66 1016.1
20260507205503 73 7 2.0 5.0 0.00 0.02 0.00 67 1016.0